Location: Bruch
(44.2051°N, 0.4120°E)
Time: 05:28:48
(UTC+00:00)

SJ 16-02 - Pass Details

Date: 29 November 2020
Orbit: 606 x 616 km, 75.0° (Epoch: 24 January)

Event Time Altitude Azimuth Distance (km) Brightness Sun altitude
Exits shadow 04:46:10 36° 17° (NNE) 977 2.4 -25.5°
Drops below altitude 10° 04:48:51 10° 19° (NNE) 1,986 4.1 -25.0°
Sets 04:51:06 0° 19° (NNE) 2,896 5.0 -24.6°
